Florala, AL

5:01 AM CDT on August 18, 2017 (GMT -0500)
Florala

Weather History for K0J4 - October, 2011

Change the Weather History Date:

Sunday, October 16, 2011

  Actual Average (KCEW) Record (KCEW)
Temperature  
Mean Temperature 72 °F -  
Max Temperature 90 °F 81 °F 91 °F (1990)
Min Temperature 53 °F 53 °F 36 °F (1978)
Cooling Degree Days 6    
Growing Degree Days 22 (Base 50)    
Moisture  
Dew Point 53 °F    
Average Humidity 59    
Maximum Humidity 86    
Minimum Humidity 25    
Precipitation  
Precipitation 0.00 in - - ()
Sea Level Pressure  
Sea Level Pressure 30.10 in    
Wind  
Wind Speed 2 mph (ENE)    
Max Wind Speed 7 mph    
Max Gust Speed -    
Visibility 10 miles    
Events      
Averages and records for this station are not official NWS values.
T = Trace of Precipitation, MM = Missing Value Source: NWS Daily Summary

Daily Weather History Graph

Daily Weather History Graph

Search for Another Location

Airport or City:

Trip Planner

Search our weather history database for the weather conditions in past years. The results will help you decide how hot, cold, wet, or windy it might be!

Date:

Astronomy

Oct. 16, 2011 Rise Set
Actual Time 6:48 AM CDT 6:12 PM CDT
Civil Twilight 6:24 AM CDT 6:37 PM CDT
Nautical Twilight 5:55 AM CDT 7:05 PM CDT
Astronomical Twilight 5:27 AM CDT 7:33 PM CDT
Moon 9:14 PM CDT (10/16) 10:48 AM CDT (10/16)
Length of Visible Light 12h 13m
Length of Day
11h 24m
Waning Gibbous, 82% of the Moon is Illuminated
Oct 16
Waning Gibbous
Oct 19
Last Quarter
Oct 26
New
Nov 2
First Quarter
Nov 10
Full

Hourly Weather History & Observations

Time (CDT) Temp. Heat Index Dew Point Humidity Pressure Visibility Wind Dir Wind Speed Gust Speed Precip Events Conditions
12:58 AM 57.0 °F - 52.0 °F 83% 30.13 in 10.0 mi Calm Calm - N/A   Clear
1:58 AM 57.9 °F - 53.1 °F 84% 30.12 in 10.0 mi SSW 3.5 mph - N/A   Clear
2:58 AM 57.9 °F - 52.0 °F 81% 30.12 in 10.0 mi Calm Calm - N/A   Clear
3:58 AM 57.0 °F - 51.1 °F 81% 30.12 in 10.0 mi Calm Calm - N/A   Clear
4:58 AM 54.0 °F - 48.9 °F 83% 30.12 in 10.0 mi Calm Calm - N/A   Clear
5:58 AM 54.0 °F - 50.0 °F 86% 30.13 in 10.0 mi Calm Calm - N/A   Clear
6:58 AM 53.1 °F - 48.9 °F 86% 30.14 in 10.0 mi Calm Calm - N/A   Clear
7:58 AM 62.1 °F - 55.0 °F 78% 30.15 in 10.0 mi Calm Calm - N/A   Clear
8:58 AM 71.1 °F - 54.0 °F 55% 30.16 in 10.0 mi NE 5.8 mph - N/A   Clear
9:58 AM 77.0 °F - 53.1 °F 43% 30.16 in 10.0 mi East 6.9 mph - N/A   Clear
10:58 AM 82.0 °F 81.6 °F 55.9 °F 41% 30.16 in 10.0 mi Variable 3.5 mph - N/A   Clear
11:58 AM 84.9 °F 83.3 °F 54.0 °F 34% 30.13 in 10.0 mi East 6.9 mph - N/A   Clear
12:58 PM 88.0 °F - 52.0 °F 29% 30.09 in 10.0 mi North 5.8 mph - N/A   Clear
1:58 PM 90.0 °F - 51.1 °F 26% 30.07 in 10.0 mi North 3.5 mph - N/A   Clear
2:58 PM 89.1 °F - 48.9 °F 25% 30.05 in 10.0 mi Variable 5.8 mph - N/A   Clear
3:58 PM 89.1 °F - 48.9 °F 25% 30.05 in 10.0 mi ESE 4.6 mph - N/A   Clear
4:58 PM 88.0 °F - 52.0 °F 29% 30.04 in 10.0 mi Calm Calm - N/A   Clear
5:58 PM 77.0 °F - 55.0 °F 47% 30.03 in 10.0 mi Calm Calm - N/A   Clear
6:58 PM 71.1 °F - 55.9 °F 59% 30.04 in 10.0 mi Calm Calm - N/A   Clear
7:58 PM 68.0 °F - 55.0 °F 63% 30.05 in 10.0 mi Calm Calm - N/A   Clear
8:58 PM 64.0 °F - 55.0 °F 73% 30.06 in 10.0 mi Calm Calm - N/A   Clear
9:58 PM 63.0 °F - 54.0 °F 72% 30.06 in 10.0 mi Calm Calm - N/A   Clear
10:58 PM 63.0 °F - 53.1 °F 70% 30.06 in 10.0 mi Calm Calm - N/A   Clear
11:58 PM 61.0 °F - 52.0 °F 72% 30.05 in 10.0 mi Calm Calm - N/A   Clear